Flag Weather past 2 weeks in Weil am Rhein, Baden-Württemberg, Germany

Now
46 °F

Overcast.


Feels Like: 42 °F
Forecast: 45 / 56 °F
Wind: 6 mph from South

Location: Bale-Mulhouse

Current Time: Nov 24, 2014 at 6:39:45 AM

Latest Report: Nov 24, 2014 at 6:00 AM


Visibility: 11 mi

Pressure: 30.16 "Hg

Humidity: 88%

Dew point: 42 °F

Location of Weil am RheinLocation

Historic Weather in Weil am Rhein — Graph

°F

Weil am Rhein temperature yesterday

Maximum temperature yesterday: 55 °F (at 3:00 PM)
Minimum temperature yesterday: 36 °F (at 2:00 AM)
Average temperature yesterday: 45 °F

Past Weeks' High & Low Weather Summary

 TemperatureHumidityPressure
High56 °F (Nov 16, 3:00 PM)100% (Nov 20, 8:00 AM)30.30 "Hg (Nov 20, 8:00 AM)
Low33 °F (Nov 20, 2:00 AM)63% (Nov 16, 3:00 PM)29.59 "Hg (Nov 16, 3:00 PM)
Average46 °F91%29.91 "Hg
* Reported Nov 9 5:00 AM — Nov 24 5:00 AM, Weil am Rhein, Weather by CustomWeather, © 2014

Note: Actual official high and low records may vary slightly from our data, if they occured in-between our weather recording intervals... More about our weather records

Advertising

Weil am Rhein weather history for previous 24 hours

 ConditionsComfort  
Time TempWeatherWind HumidityBarometerVisibility
5:00 AM
Nov 24
45 °FOvercast.3 mph88%30.17 "Hg12 mi
4:00 AM46 °FCool.8 mph87%30.16 "Hg13 mi
3:00 AM46 °FOvercast.9 mph87%30.16 "Hg13 mi
2:00 AM46 °FOvercast.8 mph86%30.16 "Hg14 mi
1:00 AM47 °FOvercast.7 mph84%30.16 "Hg16 mi
12:00 AM47 °FOvercast.7 mph82%30.15 "Hg11 mi
11:00 PM
Nov 23
48 °FOvercast.7 mph81%30.14 "Hg11 mi
10:00 PM48 °FOvercast.9 mph80%30.13 "Hg11 mi
9:00 PM48 °FOvercast.9 mph81%30.13 "Hg11 mi
8:00 PM47 °FOvercast.9 mph81%30.13 "Hg11 mi
7:00 PM47 °FPassing clouds.9 mph82%30.13 "Hg11 mi
6:00 PM48 °FPassing clouds.8 mph80%30.12 "Hg11 mi
5:00 PM49 °FPassing clouds.9 mph76%30.11 "Hg14 mi
4:00 PM52 °FOvercast.9 mph70%30.11 "Hg16 mi
3:00 PM55 °FOvercast.8 mph67%30.11 "Hg19 mi
2:00 PM55 °FOvercast.8 mph69%30.12 "Hg16 mi
1:00 PM54 °FScattered clouds.7 mph70%30.15 "Hg16 mi
12:00 PM51 °FOvercast.8 mph77%30.17 "Hg8 mi
11:00 AM48 °FLow clouds.7 mph85%30.20 "Hg7 mi
10:00 AM45 °FPartly sunny.2 mph92%30.21 "Hg6 mi
9:00 AM43 °FPassing clouds.3 mph98%30.21 "Hg5 mi
8:00 AM39 °FFog.5 mph97%30.20 "Hg4 mi
7:00 AM40 °FPassing clouds.5 mph98%30.20 "Hg4 mi
6:00 AM40 °FPassing clouds.5 mph96%30.19 "Hg4 mi
Weather by CustomWeather, © 2014

See weather overviewHow to use our weather pages